Location: Christian Reformed Church
(43.0975°N, 93.8113°W)
Time: 22:53:45
(UTC+00:00)

SL-08 ROCKET BODY - Pass Details

Date: 13 December 2025
Orbit: 896 x 961 km, 82.9° (Epoch: 14 January)

Event Time Altitude Azimuth Distance (km) Brightness Sun altitude
Rises 12:13:20 0° 195° (SSW) 3,505 7.5 -14.9°
Reaches altitude 10° 12:15:48 10° 198° (SSW) 2,565 6.7 -14.5°
Maximum altitude 12:21:35 65° 280° (W) 983 4.3 -13.5°
Drops below altitude 10° 12:27:24 10° 2° (N) 2,583 6.5 -12.5°
Sets 12:29:54 0° 6° (N) 3,532 7.3 -12.1°
